#timestamp,LO_Frequency,Hit,StdDev 
1526277615.6,286046997.1,N
1526277635.4,286046997.1,N
1526277655.3,286046997.9,N
1526277675.1,286046995.0,Y
1526277695.9,286046998.5,P
1526277715.7,286046999.4,N
1526277735.5,286046999.5,N
1526277755.4,286046999.5,N
1526277775.2,286046996.7,Y
1526277795.1,286046998.3,P
1526277796.0,286046998.3,P
1526277815.8,286046998.3,P
1526277835.6,286047001.0,N
1526277855.5,286047000.8,N
1526277875.3,286046999.9,N
1526277895.1,286047002.2,N
1526277915.9,286046999.9,N
1526277935.7,286047002.5,N
1526277955.6,286047002.7,N
1526277975.4,286047002.4,N
1526277995.2,286046999.8,N
1526278015.1,286047001.5,N
1526278016.0,286047001.5,N
1526278035.1,286047004.0,N
1526278055.9,286047001.8,N
1526278075.7,286047001.4,N
1526278095.5,286047001.5,N
1526278115.4,286047003.9,N
1526278135.2,286047003.5,N
1526278155.0,286047004.2,N
1526278156.0,286047004.2,N
1526278175.8,286047001.6,N
1526278195.6,286047002.3,N
1526278215.5,286047001.3,N
1526278235.3,286047003.6,N
1526278255.1,286047003.0,N
1526278275.9,286047004.4,N
1526278295.7,286047003.2,N
1526278315.6,286047006.0,Y
1526278335.4,286047001.5,P
1526278355.2,286047003.5,P
1526278375.1,286047002.0,N
1526278376.0,286047002.0,N
1526278395.8,286047002.0,N
1526278415.6,286047004.1,Y
1526278435.5,286047001.6,P
1526278455.3,286046999.9,N
1526278475.2,286046998.4,N
1526278495.9,286046996.7,N
1526278515.7,286046996.5,N
1526278535.6,286046996.5,N
1526278555.4,286046998.1,N
1526278575.2,286047001.1,N
1526278595.1,286046996.6,N
1526278596.0,286046996.6,N
1526278615.8,286046999.0,N
1526278635.7,286046997.8,N
1526278655.5,286046998.9,N
1526278675.3,286046999.2,N
1526278695.2,286046997.9,N
1526278715.0,286046998.0,N
1526278715.9,286046998.0,N
1526278735.7,286046995.1,N
1526278755.6,286046995.3,N
1526278775.4,286046995.4,N
1526278795.3,286046997.4,N
1526278815.1,286046995.0,N
1526278816.0,286046995.0,N
1526278835.8,286046996.8,N
1526278855.7,286047001.2,N
1526278875.5,286046999.0,N
1526278895.3,286047000.9,N
1526278915.2,286047000.1,N
1526278935.0,286047000.9,N
1526278935.9,286047000.9,N
1526278955.8,286046999.9,N
1526278975.6,286047000.4,N
1526278995.4,286047002.8,N
1526279015.3,286047000.0,N
1526279035.1,286046999.3,N
1526279055.9,286047000.8,N
1526279075.7,286046999.7,N
1526279095.5,286046998.2,N
1526279115.4,286046999.3,N
1526279135.2,286046998.3,N
1526279155.0,286046997.0,N
1526279155.9,286046997.0,N
1526279175.8,286046997.1,N
1526279195.6,286046996.8,N
1526279215.5,286046997.7,N
1526279235.3,286046997.8,N
1526279255.1,286046998.2,N
1526279275.9,286047000.9,N
1526279295.7,286047000.9,N
1526279315.5,286047000.1,N
1526279335.4,286047000.9,N
1526279355.2,286047000.6,N
1526279375.1,286047001.0,N
1526279376.0,286047001.0,N
1526279395.8,286046999.7,N
1526279415.6,286047001.2,N
1526279435.5,286047003.4,N
1526279455.3,286047003.7,N
1526279475.1,286047001.9,N
1526279495.9,286046999.7,N
1526279515.7,286047000.8,N
1526279535.6,286046998.2,N
1526279555.4,286046999.1,N
1526279575.2,286046998.6,N
1526279595.1,286047000.1,N
1526279596.0,286047000.1,N
1526279615.8,286047001.0,N
1526279635.7,286046998.3,N
1526279655.5,286047001.2,N
1526279675.3,286046998.6,N
1526279695.2,286046999.0,N
1526279715.9,286046998.6,N
1526279735.7,286046996.8,N
1526279755.6,286046996.7,N
1526279775.4,286046998.7,N
1526279795.3,286046998.5,N
1526279815.1,286046999.0,N
1526279816.0,286046999.0,N
1526279835.8,286046998.9,N
1526279855.7,286047000.9,N
1526279875.5,286047002.7,N
1526279895.3,286047000.7,N
1526279915.2,286046998.2,N
1526279935.0,286047000.8,N
1526279935.9,286047000.8,N
1526279955.8,286047000.8,N
1526279975.6,286047002.7,N
1526279995.4,286047000.0,N
1526280015.3,286047000.6,N
1526280035.1,286047000.4,N
1526280085.9,286047001.6,E
1526280095.8,286047001.2,N
1526280115.6,286046997.1,P
1526280135.5,286046997.9,N
1526280155.3,286046995.0,N
1526280175.1,286046996.5,N
1526280195.9,286046997.0,N
1526280215.7,286046999.3,N
1526280235.6,286046996.6,N
1526280255.4,286046998.6,N
1526280275.2,286046999.6,N
1526280295.1,286046998.5,N
1526280296.0,286046998.5,N
1526280315.8,286047000.3,N
1526280335.6,286046998.6,N
1526280355.5,286046999.5,N
1526280375.3,286046999.5,N
1526280395.2,286046998.9,N
1526280415.9,286046997.8,N
1526280435.7,286046997.1,N
1526280455.6,286046998.9,N
1526280475.4,286047000.8,N
1526280495.3,286047000.4,N
1526280515.1,286046996.6,N
1526280535.8,286046998.6,N
1526280555.7,286047000.0,N
1526280575.5,286047002.1,N
1526280595.4,286046999.9,N
1526280615.2,286047000.9,N
1526280635.0,286047000.3,N
1526280635.9,286047000.3,N
1526280655.8,286046999.9,N
1526280675.6,286047000.4,N
1526280695.4,286047000.1,N
1526280715.3,286047000.4,N
1526280735.1,286047001.2,N
1526280755.9,286046996.9,N
1526280775.7,286046998.5,N
1526280795.5,286046998.7,N
1526280815.4,286046998.3,N
1526280835.2,286046996.8,N
1526280855.0,286046999.6,N
1526280855.9,286046999.6,N
1526280875.8,286046999.5,N
1526280895.6,286046996.7,N
1526280915.5,286046996.8,N
1526280935.3,286047000.8,N
1526280955.1,286046999.2,N
1526280975.9,286046995.4,Y
1526280995.7,286046997.4,P
1526281015.6,286046997.0,P
1526281035.4,286046996.8,P
1526281055.2,286046997.1,Y
1526281075.1,286046999.9,P
1526281076.0,286046999.9,N
1526281095.8,286047002.8,N
1526281115.6,286047000.2,N
1526281135.5,286047000.7,N
1526281155.3,286047000.7,N
1526281175.2,286046996.6,N
1526281195.9,286046998.3,N
